DW9584 Weather Reports


time (UTC)temp
F
wind
direction
speed
knots
gust
knots
rain 1hr
in
rain 24hr
in
rain mn
in
humidity
%
barometer
mb
20260504010008 50 208 0.0 0.0 0.00 0.00 0.00 52 1013.8
20260504004510 51 208 0.0 0.0 0.00 0.00 0.00 51 1013.7
20260504003007 52 208 0.0 0.0 0.00 0.00 0.00 48 1013.4
20260504001508 53 208 0.0 0.0 0.00 0.00 0.00 43 1013.1
20260504000009 55 208 0.0 0.9 0.00 0.00 0.00 40 1013.1
20260503234508 56 221 0.0 1.7 0.00 0.00 0.00 37 1013.0
20260503233009 57 335 0.0 2.6 0.00 0.00 0.00 38 1012.8
20260503231510 57 311 0.0 7.8 0.00 0.00 0.00 35 1012.8
20260503230010 58 291 0.0 5.2 0.00 0.00 0.00 34 1012.7
20260503224507 59 314 0.9 2.6 0.00 0.00 0.00 33 1012.7
20260503223012 59 290 0.9 6.1 0.00 0.00 0.00 33 1012.5
20260503221510 59 138 1.7 8.7 0.00 0.00 0.00 31 1012.5
20260503220012 59 289 1.7 6.1 0.00 0.00 0.00 31 1012.5
20260503214514 59 303 2.6 7.0 0.00 0.00 0.00 31 1012.5
20260503213025 59 96 1.7 8.7 0.00 0.00 0.00 30 1012.4
20260503211518 59 311 0.9 7.8 0.00 0.00 0.00 32 1012.5
20260503210014 59 290 0.9 7.0 0.00 0.00 0.00 32 1012.6
20260503204515 59 284 0.9 9.6 0.00 0.00 0.00 35 1012.6
20260503203016 59 278 1.7 6.1 0.00 0.00 0.00 34 1012.5
20260503201527 59 302 1.7 6.1 0.00 0.00 0.00 33 1012.9
20260503200027 58 14 1.7 7.8 0.00 0.00 0.00 36 1012.6
20260503194523 58 189 1.7 7.8 0.00 0.00 0.00 35 1012.9
20260503193016 58 1 2.6 8.7 0.00 0.00 0.00 33 1013.1
20260503191520 58 248 4.3 10.4 0.00 0.00 0.00 32 1013.3
20260503190022 58 347 0.9 8.7 0.00 0.00 0.00 35 1013.2
20260503184526 58 297 1.7 7.0 0.00 0.00 0.00 35 1013.4
20260503183027 58 307 2.6 8.7 0.00 0.00 0.00 34 1013.6
20260503181523 57 75 0.9 8.7 0.00 0.00 0.00 34 1013.7
20260503180004 57 201 2.6 8.7 0.00 0.00 0.00 34 1013.7
20260503174504 55 268 3.5 8.7 0.00 0.00 0.00 35 1013.9
20260503173040 55 205 3.5 8.7 0.00 0.00 0.00 36 1013.9
20260503171520 56 338 0.9 5.2 0.00 0.00 0.00 39 1014.1
20260503081518 41 288 0.0 0.9 0.00 0.00 0.00 77 1011.8
20260503071509 44 316 0.0 0.0 0.00 0.00 0.00 71 1011.4
20260503054521 48 317 0.0 5.2 0.00 0.00 0.00 61 1011.5
20260503053009 48 210 0.0 1.7 0.00 0.00 0.00 60 1011.5
20260503051526 48 357 0.0 2.6 0.00 0.00 0.00 60 1011.6
20260503050024 49 293 0.9 5.2 0.00 0.00 0.00 58 1011.6
20260503044559 49 285 0.0 3.5 0.00 0.00 0.00 57 1011.8
20260503043025 49 324 0.9 4.3 0.00 0.00 0.00 56 1011.9
20260503041522 49 318 0.9 8.7 0.00 0.00 0.00 56 1012.0
20260503040018 49 327 0.9 6.1 0.00 0.00 0.00 54 1012.1
20260503034518 49 266 0.9 3.5 0.00 0.00 0.00 54 1012.2
20260503033029 50 179 0.0 7.0 0.00 0.00 0.00 53 1012.2
20260503031527 50 193 0.9 5.2 0.00 0.00 0.00 52 1012.2
20260503030029 50 308 0.9 6.1 0.00 0.00 0.00 51 1012.1
20260503024526 50 278 0.0 2.6 0.00 0.00 0.00 53 1012.2
20260503023026 51 295 0.0 2.6 0.00 0.00 0.00 51 1012.2
20260503021524 51 300 0.0 1.7 0.00 0.00 0.00 50 1012.3
20260503020032 51 305 0.0 3.5 0.00 0.00 0.00 48 1012.2
20260503014518 52 296 0.9 2.6 0.00 0.00 0.00 47 1012.2
20260503013028 52 304 0.0 2.6 0.00 0.00 0.00 46 1012.0
20260503011528 53 318 0.9 4.3 0.00 0.00 0.00 45 1012.0